Lapse_Rate
5.6 5.5 5.6 6.0 6.1 6.1 6.2 6.4 6.7 6.8 7.0 6.4 7.0 7.6 7.3 7.1 7.0 6.5 6.1 5.9 6.0 6.3 6.1 6.1 6.1 5.5 5.1 5.5 5.3 6.0 6.1 6.2 6.2 6.5 6.0 5.9 6.2 5.9 5.8 5.9 5.9 6.0 5.9 5.9
5.6 5.6 5.9 6.1 6.2 6.2 6.2 6.4 6.9 7.5 7.1 6.8 6.7 7.1 6.9 6.7 6.9 7.0 6.4 6.2 6.1 5.6 6.1 5.8 6.4 6.3 5.4 5.5 5.3 5.7 5.9 6.0 6.1 6.3 6.2 5.8 5.7 5.7 5.8 5.9 5.9 6.0 5.8 5.8
5.7 6.0 6.2 6.3 6.2 6.2 6.2 6.5 7.1 7.4 7.1 6.9 7.0 6.6 6.5 6.4 6.5 6.7 6.8 6.3 6.2 5.9 6.2 6.1 6.1 6.5 5.8 5.7 5.3 5.6 5.9 6.1 6.0 6.0 6.2 5.7 5.6 5.7 5.8 6.1 5.7 5.7 5.8 5.8
5.8 6.2 6.2 6.2 6.3 6.3 6.3 7.1 7.4 7.4 7.1 7.2 7.0 6.3 6.2 6.0 6.2 6.6 6.9 6.9 6.7 6.2 6.1 6.1 6.2 6.4 6.4 6.4 5.4 5.3 5.7 6.0 6.0 6.0 6.0 5.8 5.5 5.6 5.6 5.9 5.4 5.6 5.8 6.1
5.9 6.3 6.3 6.4 6.7 6.7 7.2 7.2 7.7 7.6 7.3 7.3 7.0 7.2 6.7 6.0 6.0 6.7 7.2 7.0 7.0 6.3 6.2 6.3 6.3 6.4 6.8 6.1 6.2 5.4 5.4 5.7 6.1 6.1 6.1 5.9 5.7 5.6 5.4 5.6 5.4 5.7 5.8 5.9
6.4 6.5 6.5 6.5 6.7 6.8 7.1 7.1 7.2 7.7 7.5 6.7 7.3 7.2 7.7 7.3 7.5 7.6 7.3 7.4 7.2 6.5 6.3 6.3 6.3 6.1 6.0 5.9 5.7 5.7 5.3 5.6 6.0 6.2 6.2 6.2 5.9 5.6 5.4 5.5 5.6 5.9 5.9 5.9
6.4 6.4 6.5 6.7 6.9 6.9 7.1 7.4 7.1 6.7 6.4 5.8 7.7 7.6 7.5 7.7 7.5 7.8 8.2 7.8 7.5 7.0 6.7 6.4 6.5 6.7 6.4 6.3 6.4 5.7 5.5 5.6 5.9 6.2 6.2 6.3 6.2 5.9 5.5 5.3 5.4 5.9 6.0 6.0
6.7 6.6 6.6 6.3 6.8 7.0 7.2 7.3 7.1 6.0 5.2 6.3 7.6 8.2 7.3 7.4 7.2 7.5 7.9 7.8 6.9 7.0 6.9 6.4 6.7 6.9 6.9 6.9 6.9 6.6 5.8 5.7 5.9 5.9 6.3 6.2 6.2 6.2 5.7 5.5 5.3 5.8 6.0 5.7
6.9 6.9 6.6 6.6 7.0 7.4 7.4 7.2 7.1 7.1 6.4 7.0 7.5 7.9 7.7 7.8 7.8 7.5 7.7 8.4 8.0 7.7 7.1 7.5 7.0 7.2 6.9 6.7 6.8 6.8 6.3 5.6 5.9 6.0 6.0 6.2 6.2 6.2 6.2 5.9 5.6 5.8 5.9 5.6
7.3 7.5 7.3 7.1 7.0 6.9 7.4 7.3 7.3 7.1 5.8 6.3 6.9 6.4 5.7 7.5 7.8 7.7 7.6 7.8 8.2 8.2 7.7 7.3 7.7 7.6 7.5 6.9 6.7 6.2 6.1 5.7 5.8 6.0 5.9 6.1 6.3 6.2 6.1 6.0 5.8 5.8 5.8 5.6
7.0 7.4 7.5 7.6 6.9 6.5 7.2 6.9 7.1 7.0 6.9 5.4 5.9 5.3 5.2 6.1 6.5 7.1 7.6 8.0 8.0 8.5 8.3 7.5 7.4 7.6 7.8 7.3 6.6 6.6 6.1 5.5 5.5 5.9 6.0 5.8 6.1 6.2 6.0 6.0 6.0 5.8 5.7 5.7
6.9 7.0 7.2 6.9 6.6 6.5 6.9 6.1 6.7 6.4 6.5 6.6 6.6 5.5 4.9 5.4 6.0 6.8 7.3 7.6 8.0 7.8 7.3 7.2 6.7 7.2 7.0 7.1 7.1 7.0 6.6 5.9 6.0 6.2 5.9 5.9 6.0 6.0 6.1 6.2 6.1 5.9 5.8 5.7
7.0 6.8 6.8 6.6 6.5 6.5 6.3 6.1 6.4 6.5 6.3 5.9 6.0 5.3 5.2 5.4 5.5 6.7 7.1 6.7 7.0 7.1 6.9 6.9 6.7 6.4 6.6 6.6 6.8 6.7 6.7 6.4 5.9 5.6 5.9 6.0 5.7 5.8 5.9 6.1 6.2 6.0 5.9 5.8
6.8 6.1 6.0 6.2 5.6 5.5 5.2 5.7 6.2 6.3 6.2 6.3 5.8 5.6 5.3 5.4 5.4 5.7 6.0 5.9 5.9 5.7 6.1 5.9 6.4 6.3 6.5 6.3 6.6 6.7 6.5 6.5 6.3 6.1 5.6 5.5 5.7 5.8 5.9 5.9 6.0 6.0 6.1 5.9
6.2 5.4 5.3 5.3 5.2 5.2 5.2 5.6 5.9 6.1 6.2 6.4 6.3 5.8 5.6 5.4 5.7 5.6 5.6 5.8 5.6 5.5 6.0 6.0 5.9 6.0 6.3 6.5 6.6 7.1 6.6 6.3 6.7 6.3 6.2 6.0 5.7 5.8 5.8 5.6 5.7 6.0 6.1 6.1
5.7 5.4 5.3 5.3 5.2 5.1 5.2 5.4 5.7 5.8 5.9 6.5 6.4 6.1 5.7 5.7 5.7 5.7 5.8 5.8 5.9 5.2 5.5 5.7 5.3 5.5 6.3 6.1 5.9 6.4 6.9 6.6 6.7 6.5 6.2 6.3 6.0 5.6 5.9 5.8 5.5 5.6 5.9 6.2
5.8 5.6 5.5 5.7 5.8 5.7 5.6 5.1 5.4 5.6 5.8 6.1 6.2 5.7 5.9 5.5 5.5 5.8 5.8 5.8 5.6 5.3 5.2 5.7 5.8 5.5 5.4 5.7 6.1 6.2 6.7 6.5 6.9 6.5 6.4 6.2 5.9 5.9 5.7 5.9 5.7 5.3 5.6 6.0
6.2 6.0 6.0 6.1 6.1 5.7 5.3 5.2 5.2 5.4 5.7 6.1 6.0 6.0 5.3 5.8 5.3 5.7 5.9 5.7 5.7 5.6 5.2 5.0 4.6 5.2 5.3 5.1 5.1 6.1 6.1 6.4 6.2 6.3 6.5 6.5 5.9 5.9 5.8 5.5 5.7 5.7 5.6 5.6
6.5 6.4 6.2 6.0 6.1 6.1 6.0 5.8 5.5 5.6 5.6 5.9 5.9 5.7 5.2 5.2 5.6 5.7 5.4 5.3 5.7 5.7 5.9 5.4 4.9 5.0 5.5 5.1 4.9 5.4 5.4 5.5 6.0 6.4 6.1 6.6 6.3 6.0 5.9 5.7 5.4 5.6 5.7 5.9
6.4 6.4 6.2 6.0 5.9 5.5 5.8 5.9 5.8 5.5 5.5 5.9 6.1 6.3 6.6 5.6 5.8 5.7 5.3 5.0 5.0 5.5 4.8 5.2 5.5 5.0 4.8 4.7 4.7 5.1 5.4 5.1 5.0 5.6 6.0 6.5 6.3 6.2 6.2 6.1 5.7 5.4 5.4 5.7
6.4 6.4 6.3 6.0 5.6 5.6 5.8 6.0 5.8 5.3 5.5 5.9 5.9 5.7 5.7 6.0 5.5 5.9 5.6 5.1 4.8 5.3 4.8 4.6 5.2 5.4 5.1 4.7 4.3 4.9 4.8 5.1 5.6 6.0 6.4 6.2 6.2 6.8 6.4 6.4 6.0 5.7 5.8 5.6
6.1 6.1 5.9 5.6 5.3 5.5 6.0 5.9 5.7 5.8 5.6 5.7 5.8 6.2 6.2 6.0 6.4 6.0 5.8 5.1 5.2 4.8 5.3 4.4 4.4 5.0 5.4 5.0 4.6 4.6 4.5 4.4 5.6 6.3 6.3 6.7 6.5 6.3 6.0 6.3 6.2 5.7 5.9 6.1
6.0 6.0 5.9 5.8 6.2 6.2 6.1 6.1 6.2 6.3 6.4 6.3 6.4 6.5 6.8 6.8 6.8 6.7 6.1 5.3 4.9 5.2 4.9 4.7 4.5 4.5 4.9 5.0 4.7 5.0 5.1 5.3 5.3 5.2 5.9 5.9 6.0 6.0 6.0 6.2 6.7 6.2 6.3 6.0
6.0 6.0 5.9 6.0 6.2 6.0 5.9 6.1 6.1 6.1 6.1 6.2 6.2 6.4 6.7 7.0 7.2 7.1 7.2 6.8 5.6 5.0 5.1 5.1 4.7 4.9 4.8 4.9 5.0 4.6 5.3 5.4 5.6 6.2 6.4 6.7 6.0 5.9 5.5 6.1 6.9 6.5 6.8 6.3
5.9 6.0 6.4 6.4 6.2 5.9 6.1 6.0 6.2 6.2 6.0 5.9 5.8 5.9 6.0 6.2 6.6 7.2 7.3 7.4 7.0 6.3 5.2 5.0 5.4 5.0 4.8 5.1 5.4 5.7 5.5 5.2 5.1 5.9 6.3 6.3 6.4 6.8 6.4 6.9 7.0 6.7 6.9 6.4
6.3 6.4 6.3 6.4 6.2 6.0 6.1 5.9 6.3 6.3 6.2 6.0 5.9 6.1 6.0 5.8 6.1 6.3 7.0 7.1 7.4 7.1 6.6 5.3 5.6 5.2 5.6 4.8 5.1 6.1 5.7 5.4 5.2 5.2 6.1 6.1 6.0 5.8 6.0 6.7 7.0 7.2 6.9 6.4
Wind_Speed
3 4 4 6 6 4 3 3 2 4 7 6 15 9 11 11 4 15 15 18 17 21 15 19 18 18 16 14 14 14 12 8 5 2 3 2 3 2 1 6 8 10 7 8
5 3 7 1 4 4 2 1 5 6 4 6 3 4 6 11 9 15 18 18 19 18 14 18 17 18 17 19 17 14 15 12 7 4 3 3 3 1 0 3 8 9 6 7
5 4 3 4 3 2 3 3 4 6 2 5 8 3 2 2 3 3 6 14 16 14 16 19 19 19 18 18 17 15 15 14 9 7 4 3 4 3 2 1 3 4 8 8
3 3 5 4 5 6 5 7 7 4 3 2 3 2 5 8 10 11 10 13 13 15 13 18 20 20 20 20 18 17 15 14 10 9 6 5 4 3 3 4 3 4 8 8
6 2 5 5 9 6 9 5 7 5 3 3 3 4 3 8 11 18 20 13 13 13 13 18 22 21 20 18 17 15 14 13 8 11 9 6 4 3 2 3 5 3 4 8
5 1 3 6 3 8 7 4 6 4 4 3 4 5 4 6 20 17 16 16 16 15 10 14 18 19 18 17 15 15 15 14 11 11 9 10 9 6 3 2 4 3 3 3
4 4 5 6 3 4 5 6 2 2 2 5 5 3 2 9 11 16 19 20 20 17 14 14 17 19 18 19 18 15 16 15 12 12 11 10 10 9 7 6 5 5 3 3
3 2 7 7 2 1 3 6 5 5 4 4 6 5 1 6 8 10 13 14 13 16 16 18 15 19 20 21 20 19 17 16 14 13 11 9 8 5 5 6 4 5 6 6
2 2 5 4 6 2 3 5 0 6 4 4 2 3 5 22 15 15 14 12 17 20 20 22 19 18 19 20 21 20 18 16 15 16 12 10 8 7 7 7 5 4 5 5
1 2 3 6 6 8 7 2 4 4 4 3 4 4 3 17 20 20 19 15 11 16 18 18 17 17 19 18 18 17 18 19 17 16 13 12 12 10 8 6 7 7 6 5
2 3 6 3 7 6 7 6 5 3 3 5 3 2 5 10 11 15 19 24 7 15 8 9 10 14 14 15 17 18 16 17 15 15 14 12 10 9 8 7 7 7 6 6
5 3 3 3 7 10 16 5 3 4 5 2 3 1 7 8 9 14 19 21 22 18 12 11 9 8 6 1 11 15 14 16 17 16 14 13 11 9 9 10 9 7 7 6
3 4 3 4 6 8 7 7 5 3 2 2 1 2 8 9 10 13 19 18 19 19 19 15 14 7 6 3 3 7 9 10 10 12 14 14 13 12 12 11 9 7 8 7
8 4 5 5 3 2 3 5 6 4 3 3 2 5 7 12 11 12 13 17 17 16 16 15 14 13 11 7 3 1 2 7 8 10 13 14 14 15 14 13 10 11 10 9
5 3 2 3 2 2 1 2 3 1 3 3 4 4 9 10 11 11 9 11 16 16 16 14 13 12 11 13 8 4 4 5 10 11 10 15 14 14 13 13 13 10 11 11
4 2 2 2 3 3 2 4 4 2 3 3 4 3 10 10 12 12 13 13 13 13 13 13 11 11 12 13 11 10 5 6 7 12 15 11 12 12 13 12 13 12 12 12
3 5 3 2 3 2 3 5 6 6 9 4 5 4 7 10 10 13 12 12 12 12 13 13 12 12 10 12 13 12 10 5 6 12 15 14 9 10 12 11 11 13 13 12
5 4 2 2 3 2 3 5 6 10 6 6 6 8 8 5 1 9 13 14 15 11 10 11 5 8 9 10 14 14 13 7 7 4 6 4 9 11 9 11 13 14 13 13
3 4 3 3 3 4 2 4 3 3 1 5 3 7 7 13 7 4 13 13 12 15 4 6 11 5 10 10 10 11 13 10 9 4 3 2 2 2 9 10 15 15 13 13
5 6 4 2 4 4 3 4 4 4 4 7 6 6 8 11 4 1 13 14 13 12 12 6 6 11 6 6 6 7 10 10 7 8 8 5 3 4 5 10 15 13 12 14
3 3 3 2 2 3 3 7 5 5 2 3 5 5 5 3 4 12 13 11 10 11 13 14 5 7 8 4 4 4 6 8 9 10 7 5 6 8 7 7 8 11 11 12
3 3 2 2 2 6 4 1 2 3 2 1 4 4 9 10 12 15 13 12 9 13 14 14 12 6 8 5 6 9 8 12 11 12 12 11 10 7 6 7 8 12 13 12
2 5 4 7 5 1 3 3 2 2 1 2 3 6 8 13 13 14 16 12 11 12 12 13 12 11 6 5 1 4 6 7 11 9 10 10 11 9 9 10 11 9 11 12
2 3 2 2 1 5 4 3 3 5 4 5 4 6 9 13 14 16 17 15 15 13 12 11 14 13 11 5 3 3 5 5 8 10 10 10 11 13 8 9 7 6 10 12
4 5 4 4 6 2 5 7 6 7 6 5 5 5 11 13 17 17 18 18 15 14 12 11 12 13 14 9 5 3 5 5 5 9 7 8 9 11 13 9 9 10 14 14
5 7 5 6 7 5 5 8 7 7 7 7 7 9 10 12 15 16 17 18 17 16 14 13 14 13 12 9 5 3 5 3 4 7 7 6 6 7 10 10 8 8 10 13
Wind_Direction
204 110 194 217 196 177 141 178 283 225 202 200 209 216 217 162 182 181 184 198 194 194 189 180 173 176 178 182 178 170 160 180 162 153 109 92 167 141 194 204 192 195 198 175
50 193 221 242 210 200 263 331 294 291 275 171 315 274 206 173 194 187 192 197 200 193 184 182 172 172 176 181 181 173 176 175 179 155 145 142 142 176 115 211 211 200 178 175
138 218 185 170 277 259 259 181 233 223 7 28 115 43 177 164 279 237 226 215 211 204 178 183 179 180 175 180 178 175 178 179 182 160 126 90 77 64 65 327 264 221 193 188
194 238 201 242 240 158 263 199 234 246 71 254 151 235 243 214 236 259 233 220 218 209 189 187 180 181 182 187 182 181 177 180 183 162 153 146 158 156 194 193 212 224 209 194
242 218 179 205 228 156 236 214 193 202 150 81 303 87 259 176 233 240 236 221 224 223 204 193 188 183 189 183 182 183 181 182 174 174 167 164 153 170 185 195 191 213 220 207
224 256 136 214 231 188 236 129 52 62 107 62 251 121 290 185 222 238 236 224 219 212 207 203 196 183 185 187 188 179 181 189 176 176 168 175 176 175 183 202 193 205 216 213
2 15 324 34 46 20 92 68 353 31 57 191 241 74 257 269 283 244 229 209 210 208 201 204 198 189 184 186 185 185 183 188 186 183 179 180 187 174 191 207 197 176 194 210
57 15 7 332 6 310 325 144 151 179 170 185 235 203 118 337 6 344 313 245 224 215 207 209 197 191 187 188 186 184 185 189 188 189 189 183 179 184 183 193 198 197 199 214
54 121 337 334 45 53 309 51 266 96 19 73 261 304 280 351 355 357 342 315 216 201 211 203 193 195 188 188 189 187 184 191 189 193 190 185 178 177 189 194 199 203 210 219
90 41 2 306 12 30 78 332 64 12 129 154 293 76 348 351 345 345 357 331 263 210 202 206 197 193 189 190 189 187 188 186 189 192 195 196 192 187 188 178 193 205 218 219
43 59 304 40 20 336 11 14 5 108 98 152 164 22 51 2 350 9 5 7 317 197 196 204 217 207 190 184 186 186 186 189 191 196 191 196 199 183 170 188 202 208 208 199
342 119 49 34 310 109 76 59 72 86 326 23 113 166 358 337 356 42 27 21 24 37 37 55 79 66 48 280 197 188 186 191 194 192 192 199 195 191 191 190 196 198 215 202
329 19 45 23 343 12 39 356 19 109 61 27 93 278 15 359 344 26 50 31 31 30 32 37 45 36 69 67 330 193 191 191 197 208 198 190 198 200 208 205 190 183 206 223
84 63 128 164 197 201 7 5 6 89 72 299 125 307 2 3 359 12 25 55 37 36 35 32 38 27 26 22 359 74 186 193 183 191 203 206 204 203 209 213 202 189 194 209
88 104 119 165 208 96 281 295 294 164 205 138 267 63 354 349 5 354 5 26 57 29 33 31 23 30 21 14 359 336 230 222 190 192 203 210 210 208 206 212 213 202 193 202
21 161 76 0 30 59 83 26 60 55 309 219 186 80 352 44 19 2 7 14 31 34 25 26 24 21 21 9 358 350 325 272 184 201 215 215 213 208 206 208 216 212 211 205
52 124 90 289 360 76 24 342 106 101 38 340 59 47 355 44 25 10 353 2 13 25 10 20 15 6 21 3 357 348 315 319 250 212 214 209 207 212 207 204 208 221 220 214
133 102 87 181 19 64 196 356 68 108 90 70 43 359 20 7 145 47 11 358 354 5 13 355 338 2 359 4 5 346 346 336 344 50 161 152 210 216 213 204 208 217 220 220
83 124 103 124 157 284 120 359 10 20 107 26 65 39 353 338 295 193 18 349 349 341 13 350 332 11 11 6 2 354 347 357 351 1 12 40 51 319 222 223 221 218 219 223
48 72 111 138 148 222 183 273 313 289 258 5 3 17 1 346 358 279 349 335 334 339 329 314 353 334 31 354 338 7 348 334 335 328 312 284 282 222 267 236 235 231 219 226
15 6 137 154 186 281 194 267 296 166 247 321 1 347 355 332 280 304 313 321 329 324 323 323 335 337 307 346 326 37 348 305 316 315 308 308 258 223 219 241 236 229 218 225
164 132 208 90 166 260 196 273 197 195 176 28 307 317 303 294 296 298 300 305 317 319 321 315 312 301 316 354 2 336 352 331 330 333 337 346 326 300 262 228 256 222 215 215
235 184 187 179 218 221 188 225 99 119 232 293 289 287 282 290 292 293 296 305 304 302 305 309 303 309 316 318 300 301 303 338 331 325 316 333 321 312 275 250 238 219 215 215
262 157 198 36 270 198 204 215 206 196 223 265 275 299 308 303 300 294 291 290 294 292 292 300 305 304 298 274 248 260 295 337 334 329 333 324 310 305 262 252 227 216 214 216
196 131 184 257 268 269 250 208 209 226 242 274 278 270 306 297 296 296 288 286 280 282 283 281 282 288 284 300 304 319 324 343 349 308 310 324 316 315 307 332 302 229 219 208
186 185 166 224 217 170 224 208 204 213 230 235 268 291 286 299 288 290 280 280 279 275 272 270 272 272 277 271 236 266 303 302 318 313 312 311 310 322 315 311 312 266 242 230